Weather History for KGUY - December, 2012

Change the Weather History Date:

Sunday, December 9, 2012

  Actual Average Record
Temperature  
Mean Temperature 26 °F 36 °F  
Max Temperature 35 °F 49 °F 67 °F (2004)
Min Temperature 16 °F 22 °F 3 °F (2009)
Degree Days  
Heating Degree Days 39 29  
Month to date heating degree days 171 250  
Since 1 July heating degree days 904 1141  
Cooling Degree Days 0 0  
Month to date cooling degree days 0 0  
Year to date cooling degree days 1917 1482  
Moisture  
Dew Point 15 °F    
Average Humidity 65    
Maximum Humidity 96    
Minimum Humidity 33    
Precipitation  
Precipitation 0.00 in 0.01 in 0.25 in (2008)
Month to date precipitation T 0.28  
Year to date precipitation 10.79 18.94  
Snow  
Snow 0.00 in - - ()
Month to date snowfall 0.0  
Since 1 July snowfall 0.0  
Snow Depth 0.00 in    
Sea Level Pressure  
Sea Level Pressure 30.06 in    
Wind  
Wind Speed 17 mph (North)    
Max Wind Speed 26 mph    
Max Gust Speed 35 mph    
Visibility 9 miles    
Events      
T = Trace of Precipitation, MM = Missing Value Source: NWS Daily Summary

Daily Weather History Graph

Daily Weather History Graph

Search for Another Location

Airport or City:

Trip Planner

Search our weather history database for the weather conditions in past years. The results will help you decide how hot, cold, wet, or windy it might be!

Date:

Astronomy

Dec. 09, 2012 Rise Set
Actual Time 7:47 AM CST 5:30 PM CST
Civil Twilight 7:18 AM CST 5:58 PM CST
Nautical Twilight 6:46 AM CST 6:31 PM CST
Astronomical Twilight 6:14 AM CST 7:02 PM CST
Moon 3:27 AM CST (12/9) 2:34 PM CST (12/9)
Length of Visible Light 10h 40m
Length of Day
9h 42m
Waning Crescent, 18% of the Moon is Illuminated
Dec 9
Waning Crescent
Dec 13
New
Dec 19
First Quarter
Dec 28
Full
Jan 4
Last Quarter

Hourly Weather History & Observations

Time (CST) Temp. Windchill Dew Point Humidity Pressure Visibility Wind Dir Wind Speed Gust Speed Precip Events Conditions
12:01 AM 33.8 °F 23.9 °F 33.8 °F 100% 29.78 in 3.0 mi NNE 15.0 mph - N/A   Overcast
12:53 AM 33.1 °F 22.2 °F 32.0 °F 96% 29.82 in 6.0 mi NNE 17.3 mph 25.3 mph N/A   Overcast
1:13 AM 33.8 °F 24.8 °F 32.0 °F 93% 29.85 in 2.0 mi North 12.7 mph - N/A   Overcast
1:31 AM 33.8 °F 23.9 °F 32.0 °F 93% 29.85 in 5.0 mi North 15.0 mph - N/A   Overcast
1:53 AM 34.0 °F 23.8 °F 32.0 °F 92% 29.86 in 9.0 mi North 16.1 mph - N/A   Overcast
2:53 AM 32.0 °F 22.1 °F 27.0 °F 82% 29.89 in 10.0 mi North 13.8 mph - N/A   Clear
3:53 AM 32.0 °F 22.1 °F 23.0 °F 69% 29.90 in 10.0 mi North 13.8 mph - N/A   Overcast
4:53 AM 33.1 °F 23.0 °F 21.0 °F 61% 29.92 in 10.0 mi North 15.0 mph - N/A   Overcast
5:53 AM 32.0 °F 21.2 °F 21.0 °F 64% 29.95 in 10.0 mi North 16.1 mph - N/A   Overcast
6:53 AM 32.0 °F 22.5 °F 19.9 °F 61% 29.99 in 10.0 mi North 12.7 mph - N/A   Overcast
7:53 AM 34.0 °F 23.4 °F 18.0 °F 52% 30.00 in 10.0 mi North 17.3 mph - N/A   Overcast
8:53 AM 33.1 °F 22.2 °F 14.0 °F 46% 30.06 in 10.0 mi North 17.3 mph 28.8 mph N/A   Overcast
9:53 AM 32.0 °F 19.5 °F 10.0 °F 40% 30.10 in 10.0 mi North 21.9 mph 32.2 mph N/A   Overcast
10:53 AM 33.1 °F 21.2 °F 10.0 °F 38% 30.13 in 10.0 mi North 20.7 mph 29.9 mph N/A   Overcast
11:53 AM 33.1 °F 21.9 °F 10.9 °F 40% 30.12 in 10.0 mi North 18.4 mph - N/A   Overcast
12:53 PM 32.0 °F 19.2 °F 7.0 °F 35% 30.12 in 10.0 mi NNW 23.0 mph 28.8 mph N/A   Overcast
1:53 PM 30.9 °F 19.1 °F 6.1 °F 35% 30.12 in 10.0 mi North 18.4 mph 31.1 mph N/A   Overcast
2:53 PM 30.0 °F 17.2 °F 7.0 °F 38% 30.12 in 10.0 mi North 20.7 mph 25.3 mph N/A   Overcast
3:53 PM 28.9 °F 15.4 °F 6.1 °F 38% 30.14 in 10.0 mi North 21.9 mph 29.9 mph N/A   Overcast
4:53 PM 28.9 °F 15.8 °F 6.1 °F 38% 30.14 in 10.0 mi North 20.7 mph 28.8 mph N/A   Overcast
5:53 PM 28.0 °F 14.6 °F 5.0 °F 38% 30.18 in 10.0 mi North 20.7 mph - N/A   Overcast
6:53 PM 28.0 °F 17.0 °F 5.0 °F 38% 30.23 in 10.0 mi North 13.8 mph 23.0 mph N/A   Overcast
7:53 PM 27.0 °F 13.5 °F 3.9 °F 37% 30.25 in 10.0 mi North 19.6 mph - N/A   Overcast
8:53 PM 25.0 °F 10.9 °F 3.9 °F 41% 30.27 in 10.0 mi North 19.6 mph 29.9 mph N/A   Mostly Cloudy
9:53 PM 21.9 °F 8.2 °F 1.9 °F 42% 30.27 in 10.0 mi North 16.1 mph 25.3 mph N/A   Clear
10:53 PM 19.0 °F 6.1 °F 1.9 °F 47% 30.29 in 10.0 mi NNW 12.7 mph - N/A   Clear
11:53 PM 16.0 °F 3.6 °F 1.9 °F 54% 30.29 in 10.0 mi NNW 10.4 mph - N/A   Clear